Flag for Russia Weather past 2 weeks in Surgut, Russia

Now
61 °F

Broken clouds.


Feels Like: 61 °F
Forecast: 54 / 68 °F
Wind: 8 mph from Southwest

Location: Surgut Airport

Current Time: Aug 4, 2015 at 7:16:59 AM

Latest Report: Aug 4, 2015 at 6:30 AM


Visibility: 4 mi

Pressure: 29.56 "Hg

Humidity: 88%

Dew point: 57 °F

Location of SurgutLocation

Historic Weather in Surgut — Graph

°F

Surgut temperature yesterday

Maximum temperature yesterday: 72 °F (at 2:30 PM)
Minimum temperature yesterday: 61 °F (at 11:00 PM)
Average temperature yesterday: 67 °F

Past Weeks' High & Low Weather Summary

 TemperatureHumidityPressure
High79 °F (Aug 2, 4:30 PM)100% (Jul 24, 1:30 AM)29.86 "Hg (Jul 24, 1:30 AM)
Low50 °F (Jul 31, 3:30 AM)39% (Jul 21, 4:30 PM)29.33 "Hg (Jul 20, 11:00 AM)
Average65 °F75%29.60 "Hg
* Reported Jul 20 11:00 AM — Aug 4 6:00 AM, Surgut, Weather by CustomWeather, © 2015

Note: Actual official high and low records may vary slightly from our data, if they occured in-between our weather recording intervals... More about our weather records

Advertising

Surgut weather history for previous 24 hours

 ConditionsComfort  
Time TempWeatherWind HumidityBarometerVisibility
6:00 AM
Tue, Aug 4
61 °FBroken clouds.10 mph88%29.56 "Hg4 mi
5:30 AM61 °FScattered clouds.8 mph88%29.53 "Hg4 mi
5:00 AM61 °FPartly sunny.8 mph88%29.56 "Hg4 mi
4:30 AM61 °FPassing clouds.8 mph88%29.56 "Hg4 mi
4:00 AM61 °FPassing clouds.8 mph88%29.56 "Hg4 mi
3:30 AM59 °FPartly cloudy.6 mph94%29.56 "Hg4 mi
3:00 AM59 °FPartly cloudy.6 mph94%29.56 "Hg4 mi
2:30 AM61 °FPartly cloudy.8 mph88%29.56 "Hg4 mi
2:00 AM61 °FPartly cloudy.8 mph88%29.56 "Hg4 mi
1:30 AM61 °FPartly cloudy.8 mph88%29.56 "Hg4 mi
1:00 AM61 °FPassing clouds.8 mph88%29.56 "Hg4 mi
12:30 AM61 °FPassing clouds.8 mph88%29.56 "Hg4 mi
12:00 AM61 °FPassing clouds.8 mph88%29.59 "Hg4 mi
11:30 PM
Mon, Aug 3
61 °FPassing clouds.8 mph88%29.59 "Hg4 mi
11:00 PM61 °FPassing clouds.8 mph88%29.59 "Hg4 mi
10:30 PM63 °FPassing clouds.10 mph83%29.59 "Hg4 mi
10:00 PM63 °FPassing clouds.8 mph77%29.59 "Hg4 mi
9:30 PM63 °FScattered clouds.10 mph77%29.59 "Hg4 mi
9:00 PM63 °FScattered clouds.13 mph77%29.59 "Hg4 mi
8:30 PM63 °FBroken clouds.10 mph77%29.59 "Hg4 mi
8:00 PM64 °FBroken clouds.13 mph73%29.59 "Hg4 mi
7:30 PM64 °FBroken clouds.13 mph73%29.59 "Hg4 mi
7:00 PM66 °FBroken clouds.17 mph68%29.59 "Hg4 mi
6:30 PM66 °FBroken clouds.10 mph68%29.59 "Hg4 mi
6:00 PM68 °FScattered clouds.10 mph64%29.59 "Hg4 mi
5:30 PM70 °FScattered clouds.10 mph57%29.59 "Hg4 mi
5:00 PM70 °FClear.10 mph57%29.59 "Hg4 mi
4:30 PM70 °FClear.13 mph57%29.59 "Hg4 mi
4:00 PM72 °FClear.17 mph53%29.59 "Hg4 mi
3:30 PM70 °FPartly sunny.10 mph60%29.59 "Hg4 mi
3:00 PM70 °FPartly sunny.10 mph57%29.62 "Hg4 mi
2:30 PM72 °FPartly sunny.10 mph57%29.62 "Hg4 mi
2:00 PM70 °FPartly sunny.17 mph60%29.62 "Hg4 mi
1:30 PM70 °FPartly sunny.15 mph60%29.62 "Hg4 mi
1:00 PM70 °FPartly sunny.15 mph57%29.59 "Hg4 mi
12:30 PM70 °FScattered clouds.15 mph64%29.59 "Hg4 mi
12:00 PM68 °FScattered clouds.15 mph69%29.59 "Hg4 mi
11:30 AM68 °FScattered clouds.13 mph78%29.59 "Hg4 mi
11:00 AM70 °FScattered clouds.13 mph73%29.59 "Hg4 mi
10:30 AM66 °FBroken clouds.8 mph94%29.59 "Hg4 mi
10:00 AM64 °FSprinkles. Broken clouds.6 mph94%29.59 "Hg4 mi
9:30 AM64 °FBroken clouds.8 mph94%29.62 "Hg4 mi
9:00 AM64 °FBroken clouds.8 mph88%29.62 "Hg4 mi
8:30 AM64 °FBroken clouds.8 mph94%29.62 "Hg4 mi
8:00 AM64 °FSprinkles. Broken clouds.8 mph94%29.62 "Hg4 mi
7:30 AM64 °FBroken clouds.3 mph94%29.65 "Hg4 mi
7:00 AM64 °FSprinkles. Broken clouds.6 mph94%29.65 "Hg4 mi
Weather by CustomWeather, © 2015

See weather overviewHow to use our weather pages